User: anonymous   Login
Location: Elstree
(51.6403°N, 0.2969°W)
Time: 19:39:07
(UTC+00:00)
Language:

deb Agena D - Orbit

View from above orbital plane
View from above orbital plane
View from above satellite
View from above satellite

Ground track
Ground track

The orbit data is extracted from the following two-line orbital elements,

1 04207U 69082BW  21262.51385993  .00000388  00000-0  10626-3 0  9991
2 04207  69.9637  88.2513 0031223 176.6793 183.4557 14.54277133714037
Epoch (UTC): 19 September 2021 12:19:57
Eccentricity: 0.0031223
inclination: 69.9637°
perigee height: 689 km
apogee height: 734 km
right ascension of ascending node: 88.2513°
argument of perigee: 176.6793°
revolutions per day: 14.54277133
mean anomaly at epoch: 183.4557°
orbit number at epoch: 71403

The dashed part of the orbit path shows where the satellite is in the earth's shadow,  

DLR